カタログに戻る

NAVSTAR 76

USA 266

運用中ナビゲーションHEO
NORAD 41328·PAYLOAD·🇺🇸 United States

打ち上げ Feb 5, 2016 から Cape Canaveral Space Force Station

Loading…

次のパス (今後24時間)

TLE

最新Source: CelesTrak SupGP

元期: Sep 17, 2026, 16:38 UTC

1 41328C 16007A   26260.69312500  .00000000  00000+0  00000+0 0  2603
2 41328  55.5864  85.7925 0097768 247.2529 177.4245  2.00572804    16

AllMySatでNAVSTAR 76をリアルタイム追跡

Download on the App Store